Location: Te Maire Creek
(41.1333°S, 175.9167°E)
Time: 14:14:48
(UTC+00:00)

USA 81 - Pass Details

Date: 19 May 2024
Orbit: 784 x 786 km, 85.0° (Epoch: 12 June)

Event Time Altitude Azimuth Distance (km) Brightness Sun altitude
Rises 18:38:48 0° 358° (N) 3,266 7.5 -8.3°
Reaches altitude 10° 18:41:08 10° 358° (N) 2,346 6.8 -7.9°
Maximum altitude 18:46:25 87° 84° (E) 802 4.2 -7.0°
Drops below altitude 10° 18:51:47 10° 175° (S) 2,379 6.4 -6.1°
Sets 18:54:10 0° 175° (S) 3,316 7.1 -5.6°
